Location: Peebles
(55.6412°N, 3.1714°W)
Time: 11:37:33
(UTC+01:00)

FENGYUN 1C DEB - Pass Details

Date: 06 July 2022
Orbit: 580 x 1160 km, 99.3° (Epoch: 14 August)

Event Time Altitude Azimuth Distance (km) Brightness Sun altitude
Exits shadow 01:51:44 13° 209° (SSW) 2,423 ? -11.3°
Maximum altitude 01:56:26 33° 269° (W) 1,622 ? -11.2°
Drops below altitude 10° 02:02:21 10° 331° (NNW) 2,935 ? -11.1°
Sets 02:05:22 0° 341° (NNW) 3,959 ? -11.0°
